ISPRA Istituto Superiore per la Protezione e la Ricerca Ambientale
R.M.N. Rete Mareografica Nazionale
LA SPEZIA
LIVELLO IDROMETRICO (m)
DATA;ORA;VALORE
20100503;00:00;0,23
20100503;01:00;0,20
20100503;02:00;0,14
20100503;03:00;0,13
20100503;04:00;0,13
20100503;05:00;0,10
20100503;06:00;0,13
20100503;07:00;0,11
20100503;08:00;0,14
20100503;09:00;0,18
20100503;10:00;0,16
20100503;11:00;0,14
20100503;12:00;0,09
20100503;13:00;0,05
20100503;14:00;0,02
20100503;15:00;0,00
20100503;16:00;-0,01
20100503;17:00;-0,01
20100503;18:00;-0,03
20100503;19:00;0,06
20100503;20:00;0,13
20100503;21:00;0,16
20100503;22:00;0,26
20100503;23:00;0,21
20100504;00:00;0,25
20100504;01:00;0,21
20100504;02:00;0,20
20100504;03:00;0,20
20100504;04:00;0,19
20100504;05:00;0,16
20100504;06:00;0,15
20100504;07:00;0,12
20100504;08:00;0,12
20100504;09:00;0,19
20100504;10:00;0,13
20100504;11:00;0,24
20100504;12:00;0,13
20100504;13:00;0,16
20100504;14:00;0,13
20100504;15:00;0,12
20100504;16:00;0,13
20100504;17:00;0,07
20100504;18:00;0,02
20100504;19:00;0,00
20100504;20:00;0,03
20100504;21:00;0,08
20100504;22:00;0,16
20100504;23:00;0,12
20100505;00:00;0,07
